Kuiper-00191

operational
NORAD ID: 67143 Int'l Des: 2025-301 Owner: KUIP Country: US Constellation: kuiper
LEOCIRCULAR

关于 Kuiper-00191

正在加载描述...

实时位置

正在加载3D地球...

即将过境

高度历史

Altitude vs Time

uPlot chart will show altitude changes over time

两行轨道根数

1 67143U 25301L 26034.58335648 -.00800424 00000-0 -27094-1 0 9992
2 67143 51.8678 230.2405 0007871 275.9782 264.9612 15.32460211 4983
Epoch: Feb 3, 2026 • Age: 11 hours

当前状态

高度 482.3 km
速度 7.63 km/s
星下点 51.85°N, 178.47°W
发射日期 Dec 16, 2025
运行时间 0.1 years
类型 internet

技术详情

分类 Payload
质量 490.00 kg
干质量 490.00 kg
总质量 490.00 kg
长度 1.80 m
直径 0.70 m
跨度 5.00 m
形状 Box + 2 pan
制造商 KUIP
平台类型 Kuiper
阶段状态 In Orbit
所有者/国家 KUIP/US

大型星座

Loading constellations...